Current weather by "City, St" or "zip code"  
 
Advertise Here

Current Conditions: Sacramento Executive Airport, CA

Fair


64.0 F

Last Updated on Sep 16 2021, 8:53 pm PDT
Humidity: 70%
Wind Speed: S 9.2 mph
Barometer 29.80 in
Dewpoint: 54.0 F
Visibility: 10.00 mi
Precip: --
Heat Index: NA
Wind Chill: NA
Current conditions at:

Sacramento Executive Airport, CA (KSAC)

Lat: 38.50674 Lon: 121.49597

Local Radar Image active severe weather and emergency alerts image image weather storm and storm spotter reports image weather observation monitoring service image
Local
Radar
Active
Alerts
Storm Reports Obs
Monitoring

Sign-up For Email & Text Message Weather Alert Notification Services



Advertise Here

Observation History for Sacramento Executive Airport, CA


Time Wind
(mph)
Vis
(mi)
Weather Precip (in) Temperature (F) Relative
Humidity
Wind
Chill
(F)
Heat
Index
(F)
Pressure
Air Dwpt altimeter
(in)
sea level
(mb)
Rmks
8:53 pm PDT S 9.2 10.00 Fair -- 64.0 54.0 70% NA NA 29.80 1009.1
7:53 pm PDT SW 6.9 10.00 Fair -- 67.0 54.0 63% NA NA 29.78 1008.5
6:53 pm PDT SW 8.1 10.00 Fair -- 72.0 55.0 55% NA NA 29.77 1008.1
5:53 pm PDT SW 6.9 10.00 Fair -- 77.0 54.0 45% NA NA 29.77 1007.9
4:53 pm PDT W 9.2 10.00 Fair -- 79.0 53.1 41% NA NA 29.77 1008.0
3:53 pm PDT SW 8.1 10.00 Fair -- 78.0 54.0 43% NA NA 29.78 1008.2
2:53 pm PDT SW 8.1 10.00 Fair -- 78.0 55.0 45% NA NA 29.78 1008.4
1:53 pm PDT SW 10.4 10.00 Fair -- 77.0 53.1 43% NA NA 29.79 1008.8
12:53 pm PDT S 5.8 10.00 Fair -- 74.0 53.1 48% NA NA 29.81 1009.4
11:53 am PDT 5.8 10.00 Fair -- 71.0 54.0 55% NA NA 29.83 1010.1
10:53 am PDT SW 5.8 10.00 Fair -- 67.0 54.0 63% NA NA 29.84 1010.4
9:53 am PDT W 5.8 10.00 Fair -- 64.0 54.0 70% NA NA 29.84 1010.2
8:53 am PDT 4.6 10.00 Fair -- 60.0 54.0 80% 60 NA 29.83 1010.0
7:53 am PDT SW 6.9 10.00 Fair -- 56.0 53.1 90% 54 NA 29.82 1009.7
6:53 am PDT S 5.8 10.00 Fair -- 55.0 53.1 93% 54 NA 29.80 1009.1
5:53 am PDT S 6.9 10.00 Fair -- 55.0 53.1 93% 53 NA 29.79 1008.8
4:53 am PDT SW 10.4 G 19.6 10.00 Fair -- 56.0 54.0 93% 53 NA 29.78 1008.3
3:53 am PDT S 8.1 10.00 Fair -- 56.0 54.0 93% 54 NA 29.79 1008.8
2:53 am PDT S 6.9 10.00 Fair -- 57.0 53.1 87% 56 NA 29.80 1008.9
1:53 am PDT SW 12.7 G 23.0 10.00 Fair -- 57.0 53.1 87% 54 NA 29.80 1009.2
12:53 am PDT S 11.5 G 17.3 10.00 Fair -- 58.0 53.1 84% 56 NA 29.81 1009.4
11:53 pm PDT S 10.4 G 23.0 10.00 Fair -- 58.0 53.1 84% 56 NA 29.80 1009.2
10:53 pm PDT S 11.5 G 20.7 10.00 Fair -- 59.0 52.0 78% 57 NA 29.81 1009.4
9:53 pm PDT S 11.5 G 19.6 10.00 Fair -- 60.0 52.0 75% 58 NA 29.81 1009.3

Regional Weather Observation


Yolo County Airport, CA (KDWA)

NULL
70.0 F

University Airport, CA (KEDU)

Fair
59.0 F

Sacramento, McClellan Airfield Airport, CA (KMCC)

Fair
70.0 F

Lincoln Regional Karl Harder Field, CA (KLHM)

Fair
64.0 F

Sacramento Executive Airport, CA (KSAC)

Fair
64.0 F

Vacaville Nut Tree Airport, CA (KVCB)

Fair
66.0 F
Advertise Here


Advertise Here